This is the latest recevied weather packets stored in our database for station/object G4KVI. If no packets are shown the sender has not sent any weather packets the latest 10 day(s).
| Time | Temp. | Humidity | Pressure | Rain* | Wind** | Luminosity | Snow |
|---|---|---|---|---|---|---|---|
| 1777885204 | 12.78° C | 91% | 1016.2 hPa | 0 mm | - | 126 W/m² | - |
| 1777884904 | 12.78° C | 91% | 1016.3 hPa | 0 mm | - | 133 W/m² | - |
| 1777884604 | 12.22° C | 90% | 1016.2 hPa | 0 mm | - | 128 W/m² | - |
| 1777884304 | 12.22° C | 90% | 1016.2 hPa | 0 mm | - | 145 W/m² | - |
| 1777884004 | 12.22° C | 89% | 1016.3 hPa | 0 mm | - | 62 W/m² | - |
| 1777883704 | 12.22° C | 89% | 1016.3 hPa | 0 mm | - | 89 W/m² | - |
| 1777883403 | 12.22° C | 89% | 1016.1 hPa | 0 mm | - | 82 W/m² | - |
| 1777883103 | 12.22° C | 88% | 1015.9 hPa | 0 mm | - | 69 W/m² | - |
| 1777882804 | 12.22° C | 89% | 1016 hPa | 0 mm | - | 79 W/m² | - |
| 1777882504 | 12.22° C | 89% | 1016 hPa | 0 mm | - | 99 W/m² | - |
| 1777882204 | 12.22° C | 90% | 1015.8 hPa | 0 mm | - | 131 W/m² | - |
| 1777881903 | 12.22° C | 91% | 1015.9 hPa | 0 mm | - | 162 W/m² | - |
| 1777881603 | 11.67° C | 91% | 1015.9 hPa | 0 mm | - | 138 W/m² | - |
| 1777881304 | 12.22° C | 92% | 1015.9 hPa | 0 mm | - | 104 W/m² | - |
| 1777881004 | 12.22° C | 91% | 1015.7 hPa | 0 mm | - | 64 W/m² | - |
| 1777880704 | 12.22° C | 91% | 1015.8 hPa | 0 mm | - | 69 W/m² | - |
| 1777880404 | 11.67° C | 91% | 1015.8 hPa | 0 mm | - | 57 W/m² | - |
| 1777880104 | 12.22° C | 90% | 1015.8 hPa | 0 mm | - | 51 W/m² | - |
| 1777879803 | 12.22° C | 90% | 1015.9 hPa | 0 mm | - | 57 W/m² | - |
| 1777879503 | 12.22° C | 89% | 1015.5 hPa | 0 mm | - | 63 W/m² | - |
| 1777879203 | 12.22° C | 89% | 1015.5 hPa | 0 mm | - | 55 W/m² | - |
| 1777878903 | 12.22° C | 89% | 1015.6 hPa | 0 mm | - | 39 W/m² | - |
| 1777878603 | 12.22° C | 89% | 1015.4 hPa | 0 mm | - | 40 W/m² | - |
| 1777878304 | 12.22° C | 89% | 1015.3 hPa | 0 mm | - | 44 W/m² | - |
| 1777878003 | 12.22° C | 89% | 1015.5 hPa | 0 mm | - | 45 W/m² | - |
* Rain latest hour (hover to see other rain measurements)
** Current wind speed in m/s (hover to see current wind gust speed)